Temperature
9 9 9 9 10 10 10 9 9 10 10 10 10 11 11 12 14 14 13 13 13 12 12 11 11 10 10 10 10 10 9 9 9 8 8 7 7 7
8 8 8 9 9 9 9 9 9 9 9 9 10 10 10 11 12 11 11 12 12 12 12 12 11 11 10 10 9 9 9 9 8 7 7 7 6 6
6 6 6 7 7 7 8 8 8 8 8 8 9 9 10 10 10 10 11 11 11 11 11 12 11 11 10 10 9 9 9 8 7 7 6 6 5 4
5 5 5 5 5 6 6 6 7 7 7 7 8 8 9 9 10 10 10 10 10 10 11 11 11 10 10 9 9 9 8 8 7 6 5 5 4 2
4 4 4 4 4 5 4 5 5 6 6 6 7 7 8 8 8 9 9 9 9 9 9 10 10 10 9 9 8 8 7 7 6 5 4 4 4 0
3 3 3 3 3 3 3 3 4 5 5 6 7 7 7 7 8 8 8 8 8 8 8 8 9 9 8 7 7 7 6 6 5 4 3 3 4 -0
2 2 3 3 3 2 2 2 2 3 3 4 5 6 7 7 7 7 7 7 8 8 8 7 7 7 7 6 6 6 5 4 3 2 0 -0 1 -1
1 2 2 2 1 1 2 2 1 1 2 3 3 4 5 6 6 6 6 6 6 7 7 8 6 5 5 5 4 5 5 3 2 0 -3 -2 -2 -3
-1 -0 0 0 -1 -0 1 1 0 -0 -0 1 2 2 3 4 5 6 6 5 6 6 6 6 5 4 4 4 3 2 2 1 1 -2 -2 -3 -4 -4
-3 -2 -2 -2 -3 -2 -2 -2 -1 -1 -0 0 1 1 2 2 3 3 4 5 5 5 5 5 4 3 3 3 2 1 1 0 -0 -2 -4 -4 -4 -4
-4 -3 -3 -4 -4 -4 -3 -3 -2 -1 -1 0 1 1 1 2 3 3 4 4 4 4 4 4 3 2 1 1 0 0 -1 -1 -3 -4 -4 -4 -4 -4
-5 -5 -4 -4 -4 -4 -4 -3 -2 -1 -1 -1 -0 1 1 2 2 3 3 3 3 3 3 3 1 -0 -1 -1 -1 -2 -3 -4 -4 -4 -4 -4 -5 -5
-5 -5 -5 -5 -5 -5 -4 -3 -2 -2 -2 -2 -2 -0 1 1 2 2 2 2 2 3 3 2 0 -0 -1 -2 -2 -3 -4 -4 -4 -5 -5 -5 -5 -5
-6 -6 -6 -6 -5 -4 -4 -3 -3 -3 -3 -3 -3 -2 -1 -0 0 1 1 1 1 1 1 0 0 -0 -1 -4 -4 -4 -4 -4 -4 -4 -4 -4 -5 -6
-6 -6 -6 -6 -5 -5 -5 -5 -5 -4 -4 -4 -4 -4 -3 -2 -2 -2 -2 -2 -2 -1 -1 -1 -0 -1 -1 -2 -2 -2 -3 -3 -3 -3 -4 -4 -4 -4
-7 -7 -7 -7 -7 -7 -6 -6 -5 -5 -5 -5 -5 -4 -4 -4 -4 -4 -4 -3 -3 -4 -3 -3 -3 -3 -3 -2 -1 -2 -3 -3 -3 -3 -4 -4 -5 -5
-7 -8 -8 -8 -8 -8 -7 -6 -6 -6 -6 -6 -5 -5 -5 -5 -4 -4 -5 -4 -3 -4 -4 -4 -4 -4 -3 -2 -2 -3 -3 -3 -4 -4 -5 -5 -5 -5
-9 -9 -9 -9 -9 -9 -8 -7 -7 -6 -6 -6 -5 -5 -5 -5 -5 -5 -5 -5 -5 -5 -5 -4 -4 -4 -3 -3 -3 -3 -3 -4 -5 -5 -6 -6 -5 -5
-10 -10 -10 -10 -10 -9 -9 -8 -8 -7 -7 -6 -6 -6 -6 -6 -6 -6 -6 -5 -5 -5 -5 -4 -4 -4 -3 -3 -4 -4 -4 -5 -6 -6 -6 -5 -5 -5
-10 -10 -10 -10 -10 -9 -9 -9 -8 -7 -7 -7 -7 -7 -7 -7 -7 -6 -6 -6 -6 -5 -5 -5 -5 -4 -4 -4 -5 -5 -5 -6 -5 -5 -5 -6 -5 -6
-10 -10 -11 -11 -10 -10 -9 -8 -8 -8 -7 -7 -7 -7 -7 -7 -7 -7 -6 -6 -6 -6 -5 -5 -5 -5 -5 -5 -6 -5 -6 -6 -5 -6 -6 -7 -7 -6
-10 -11 -11 -11 -11 -10 -9 -8 -8 -8 -7 -7 -7 -7 -7 -7 -7 -6 -6 -6 -6 -6 -5 -5 -5 -5 -6 -6 -6 -6 -6 -6 -6 -6 -6 -6 -7 -7
-11 -11 -11 -11 -11 -10 -9 -8 -8 -8 -8 -7 -7 -7 -7 -7 -6 -6 -6 -6 -5 -5 -5 -5 -6 -6 -6 -6 -6 -6 -6 -6 -6 -6 -6 -6 -7 -7
Wind_Speed
11 12 11 12 12 12 13 15 19 23 21 18 13 16 13 13 18 15 13 20 25 28 29 30 29 27 25 26 27 27 26 23 23 24 22 20 19 18
12 13 13 12 12 11 11 12 14 18 23 19 16 13 11 9 14 14 15 21 24 29 29 29 29 28 27 25 23 22 20 21 23 24 23 22 20 19
13 14 14 14 12 12 11 12 12 14 20 20 14 14 13 10 10 10 11 12 15 25 30 30 30 29 26 23 25 24 22 23 23 23 23 21 19 19
16 15 15 14 15 14 13 13 14 15 17 21 18 12 13 11 12 12 11 11 10 17 24 28 28 27 24 23 24 22 21 21 21 22 21 18 18 19
15 14 13 14 15 14 15 14 14 15 15 18 20 14 12 10 7 10 10 8 8 12 17 21 23 24 25 26 24 21 20 19 19 20 19 19 18 19
13 11 11 13 15 17 15 15 16 17 16 17 18 15 14 8 4 8 9 6 7 4 8 12 15 20 22 23 22 17 16 16 18 20 19 19 18 18
10 10 10 14 18 17 17 17 17 16 15 15 16 15 13 8 7 6 9 8 7 8 7 8 9 12 18 20 18 20 18 18 19 18 19 19 18 18
14 15 15 16 16 24 26 24 23 22 19 16 16 17 17 15 11 10 10 10 6 6 7 8 8 8 9 11 18 21 21 20 20 19 21 19 19 21
15 17 18 16 16 19 24 27 26 28 25 20 19 20 19 19 18 14 11 13 12 4 9 6 7 7 6 10 20 17 17 19 20 21 21 20 20 19
14 16 17 14 16 22 21 22 23 23 22 18 17 20 20 20 19 19 17 11 5 1 6 4 6 5 6 9 17 16 16 19 21 22 22 22 20 18
16 17 17 17 24 30 24 23 25 23 21 24 24 26 29 29 23 17 13 9 7 3 2 4 3 3 3 3 6 14 18 20 22 21 21 20 19 17
14 15 21 25 31 34 25 23 22 22 21 21 20 20 19 17 16 12 12 12 7 4 6 6 3 4 3 3 3 2 7 14 17 16 17 17 16 8
13 13 15 30 36 36 30 19 21 24 21 18 17 15 11 7 7 6 6 7 6 3 9 8 4 3 4 4 2 1 1 2 1 4 8 11 14 11
15 14 17 33 36 32 24 24 30 25 15 15 14 13 12 9 5 4 3 4 4 5 8 5 4 5 5 4 3 3 3 3 3 3 3 2 5 11
16 23 29 32 28 21 25 29 23 14 14 14 14 13 10 5 3 3 5 8 12 12 10 7 8 8 5 4 4 3 3 2 2 2 2 3 3 3
17 20 25 24 22 21 20 17 12 13 14 14 12 12 8 2 1 1 1 4 7 8 12 13 10 7 3 3 4 3 3 3 3 3 3 2 3 4
20 12 12 14 15 14 14 14 13 13 14 13 12 11 7 1 1 1 1 3 4 4 7 7 7 6 5 4 4 3 3 2 3 3 3 2 4 6
18 12 12 14 15 15 16 16 16 16 15 14 12 10 6 3 3 2 2 4 6 7 6 3 2 3 4 3 1 3 3 2 3 4 5 4 4 5
13 12 12 14 15 16 16 17 18 17 16 12 11 9 4 3 3 4 4 4 5 6 4 2 3 3 3 2 2 3 3 3 3 4 5 5 5 5
10 11 12 14 16 15 16 17 18 17 14 12 9 7 3 1 3 4 4 4 5 4 3 3 2 2 3 2 1 3 6 6 4 3 3 3 5 7
10 11 12 14 15 14 15 16 18 17 16 12 8 4 1 2 3 4 4 7 5 3 3 2 1 3 3 2 1 3 4 8 8 6 4 3 3 3
11 12 13 14 14 14 16 16 17 16 15 10 7 3 1 2 3 4 5 5 4 3 3 1 1 3 2 1 2 3 4 5 8 11 13 12 6 4
11 12 13 14 13 15 16 16 17 15 12 8 5 3 3 3 4 5 6 5 4 4 3 2 3 2 0 1 3 3 4 4 3 3 4 12 18 15
Wind_Direction
296 292 293 293 290 283 277 275 280 286 284 277 268 256 243 233 230 227 224 236 235 237 237 236 237 234 232 233 233 226 216 206 210 213 211 213 221 231
306 304 300 297 297 292 284 280 277 281 286 285 279 268 258 236 230 223 222 231 231 232 233 231 228 228 226 225 222 210 199 201 208 210 210 214 220 227
313 309 305 305 306 303 299 295 291 288 288 291 288 280 266 246 243 238 235 236 239 234 232 228 223 222 220 211 192 188 192 197 203 208 212 213 219 224
313 309 309 315 312 310 306 301 299 296 291 291 291 284 273 254 243 247 247 243 245 247 240 232 221 216 211 193 184 180 187 194 197 205 207 208 217 225
306 306 309 312 310 310 310 308 305 299 293 288 287 287 281 271 252 256 262 263 253 247 245 237 224 215 208 191 185 180 182 184 191 198 200 201 211 223
299 296 301 309 311 311 309 307 305 301 300 295 287 283 280 276 239 265 268 254 254 259 261 251 229 215 206 187 174 176 179 182 191 195 200 201 199 217
294 294 297 303 299 308 317 313 313 312 308 307 303 297 284 272 269 260 260 261 230 222 225 230 214 201 185 179 173 168 175 185 194 203 207 205 199 211
320 322 317 312 313 324 316 313 314 310 307 306 302 299 297 291 279 270 275 269 252 202 210 227 196 190 172 169 172 171 175 190 196 207 215 209 204 210
323 323 318 316 326 321 316 316 315 308 303 298 295 292 296 299 297 282 276 274 266 195 182 197 172 173 150 155 158 170 188 199 203 207 209 209 209 212
319 317 311 315 320 318 318 316 312 306 297 286 280 284 284 287 288 291 287 281 309 243 157 163 173 171 155 161 169 182 201 208 207 204 203 204 208 214
320 314 311 312 313 318 318 310 306 302 297 287 276 277 277 278 278 278 273 251 248 239 161 118 130 98 103 113 159 191 206 212 208 202 202 204 208 213
312 312 313 314 316 316 313 305 302 309 316 316 306 293 286 284 287 278 266 255 233 210 190 142 131 128 112 70 85 214 219 216 206 206 207 205 203 199
317 316 313 313 314 311 306 303 311 316 314 313 308 307 304 293 285 275 267 261 223 204 181 154 139 125 95 98 95 156 69 67 111 194 197 198 207 206
318 313 312 313 311 310 313 319 320 319 312 309 307 309 307 297 294 314 353 34 56 109 142 129 119 123 118 117 136 131 69 73 75 74 76 102 226 231
314 316 320 319 320 321 320 321 322 316 309 309 309 309 304 308 349 357 46 71 74 69 66 66 97 104 100 125 130 124 120 109 112 120 135 157 176 196
317 321 322 324 323 319 317 315 315 310 310 308 306 305 303 307 1 0 39 82 80 67 61 61 70 91 108 94 103 122 133 131 149 160 154 179 201 203
328 324 324 325 319 316 316 318 317 316 315 315 310 304 297 261 157 115 61 45 77 92 85 75 71 66 76 111 118 140 147 167 183 163 171 230 235 217
329 318 320 319 316 318 320 320 319 320 318 317 312 302 287 218 180 124 82 95 115 111 105 96 77 56 45 35 115 139 148 178 200 196 199 210 241 226
320 314 317 317 315 318 320 319 318 317 317 315 311 305 280 210 173 131 116 112 111 104 100 79 68 80 76 43 331 198 173 190 197 208 207 209 219 221
313 315 316 316 315 316 319 318 314 315 319 319 316 308 289 191 134 135 131 114 112 113 95 61 76 112 125 150 282 269 230 217 215 219 226 233 245 243
314 317 315 314 312 315 317 314 312 315 320 323 319 310 312 112 112 113 119 125 121 99 97 83 50 118 112 87 314 289 265 246 239 212 200 223 249 243
312 314 315 313 314 318 315 313 313 317 321 320 316 318 31 79 91 94 89 93 90 96 111 131 45 69 79 150 234 267 289 295 281 258 233 219 215 210
310 312 314 312 315 316 313 312 313 316 319 317 321 350 35 59 73 77 78 89 100 86 69 40 24 35 14 252 276 273 273 272 278 295 258 235 229 225
Height
1395 1391 1387 1383 1380 1376 1372 1368 1363 1351 1343 1343 1343 1341 1338 1335 1333 1333 1331 1331 1331 1330 1330 1332 1333 1336 1338 1340 1340 1343 1346 1347 1349 1351 1353 1354 1355 1357
1389 1384 1379 1375 1370 1366 1361 1358 1354 1349 1335 1331 1330 1330 1328 1323 1322 1320 1317 1318 1317 1318 1319 1319 1320 1322 1325 1326 1329 1331 1333 1336 1338 1341 1342 1344 1345 1347
1382 1378 1372 1367 1362 1357 1353 1349 1343 1339 1329 1318 1320 1318 1316 1313 1310 1308 1306 1305 1304 1303 1306 1307 1306 1308 1311 1313 1315 1318 1321 1323 1326 1330 1333 1334 1336 1337
1375 1370 1365 1360 1355 1351 1346 1341 1336 1331 1325 1314 1306 1304 1302 1300 1297 1296 1294 1293 1291 1291 1292 1294 1293 1294 1298 1300 1303 1305 1309 1311 1314 1317 1320 1323 1327 1329
1369 1364 1359 1354 1349 1345 1340 1333 1327 1322 1317 1309 1298 1294 1290 1289 1286 1283 1281 1279 1277 1278 1279 1281 1280 1282 1285 1286 1290 1293 1295 1300 1303 1306 1309 1312 1316 1320
1364 1359 1353 1349 1344 1339 1333 1327 1320 1314 1308 1301 1292 1285 1281 1279 1276 1273 1268 1266 1265 1266 1268 1269 1267 1269 1272 1273 1275 1282 1284 1287 1292 1296 1300 1301 1304 1310
1356 1352 1347 1342 1337 1334 1329 1321 1313 1307 1300 1294 1287 1280 1273 1268 1266 1264 1258 1255 1252 1254 1254 1254 1256 1255 1256 1262 1263 1265 1272 1276 1282 1288 1291 1293 1295 1300
1350 1345 1340 1334 1331 1326 1319 1313 1308 1302 1294 1287 1281 1275 1269 1265 1260 1256 1252 1248 1240 1240 1241 1241 1241 1243 1243 1245 1249 1253 1258 1266 1272 1277 1284 1287 1289 1294
1345 1339 1333 1329 1323 1317 1309 1301 1296 1291 1288 1282 1273 1264 1260 1257 1253 1248 1242 1241 1234 1230 1229 1229 1231 1232 1235 1237 1241 1248 1254 1258 1262 1269 1275 1280 1284 1288
1339 1334 1328 1321 1317 1311 1301 1291 1284 1279 1275 1269 1264 1256 1251 1246 1243 1239 1235 1230 1226 1221 1218 1217 1218 1221 1223 1227 1232 1240 1246 1251 1256 1262 1268 1273 1276 1281
1333 1327 1321 1315 1310 1305 1296 1286 1277 1268 1263 1258 1252 1245 1240 1235 1231 1226 1222 1218 1212 1209 1207 1209 1210 1212 1215 1219 1225 1232 1240 1247 1253 1258 1262 1265 1269 1273
1327 1321 1316 1309 1302 1296 1290 1281 1271 1263 1255 1245 1239 1234 1228 1223 1219 1214 1210 1206 1201 1198 1196 1199 1202 1205 1209 1213 1220 1228 1236 1244 1250 1253 1255 1259 1263 1267
1321 1314 1308 1301 1293 1286 1281 1275 1267 1258 1248 1238 1229 1222 1217 1212 1207 1203 1199 1195 1191 1189 1189 1191 1194 1198 1200 1207 1217 1224 1231 1238 1242 1245 1248 1252 1257 1261
1315 1308 1300 1293 1285 1278 1273 1267 1260 1251 1241 1230 1222 1214 1208 1202 1198 1193 1189 1185 1184 1184 1183 1184 1187 1191 1195 1203 1212 1220 1226 1232 1237 1240 1242 1245 1250 1254
1310 1302 1295 1287 1279 1271 1265 1259 1251 1243 1234 1225 1217 1210 1204 1198 1192 1188 1185 1182 1180 1179 1180 1182 1186 1191 1197 1203 1210 1216 1222 1228 1232 1235 1237 1240 1244 1247
1302 1295 1288 1281 1274 1267 1259 1252 1244 1237 1230 1221 1212 1205 1199 1194 1190 1187 1184 1181 1179 1179 1180 1183 1187 1193 1200 1206 1211 1215 1220 1223 1227 1230 1233 1236 1239 1241
1298 1289 1282 1275 1267 1260 1253 1246 1240 1232 1223 1215 1208 1201 1196 1191 1188 1186 1184 1183 1182 1181 1183 1186 1190 1196 1202 1207 1211 1214 1217 1220 1223 1226 1229 1232 1234 1237
1294 1286 1279 1271 1264 1256 1248 1241 1234 1227 1219 1211 1204 1197 1192 1189 1186 1185 1185 1185 1185 1185 1187 1189 1193 1198 1203 1206 1210 1211 1214 1217 1221 1223 1225 1226 1229 1231
1291 1283 1276 1268 1261 1254 1247 1239 1229 1222 1215 1207 1200 1194 1189 1187 1185 1185 1186 1187 1187 1188 1190 1193 1196 1199 1201 1204 1207 1210 1213 1215 1217 1218 1219 1220 1221 1224
1287 1280 1273 1265 1258 1251 1244 1235 1226 1218 1211 1204 1198 1192 1187 1185 1184 1185 1186 1187 1188 1190 1193 1195 1197 1200 1202 1205 1207 1209 1210 1211 1211 1212 1213 1215 1216 1217
1282 1276 1269 1262 1255 1249 1240 1231 1223 1215 1208 1201 1195 1190 1186 1185 1185 1185 1187 1189 1191 1193 1194 1196 1199 1201 1202 1204 1205 1206 1206 1206 1206 1206 1207 1209 1210 1211
1280 1273 1266 1259 1252 1245 1235 1227 1219 1211 1205 1199 1194 1190 1187 1186 1187 1188 1190 1192 1193 1195 1197 1198 1199 1200 1201 1201 1201 1202 1203 1203 1203 1202 1203 1204 1206 1208
1276 1269 1262 1255 1248 1240 1231 1223 1215 1209 1204 1199 1195 1193 1191 1191 1192 1193 1194 1196 1197 1197 1198 1199 1200 1200 1200 1201 1201 1200 1200 1200 1199 1200 1201 1201 1202 1206